This is the latest recevied weather packets stored in our database for station/object K0SNA. If no packets are shown the sender has not sent any weather packets the latest 10 day(s).
| Time | Temp. | Humidity | Pressure | Rain* | Wind** | Luminosity | Snow |
|---|---|---|---|---|---|---|---|
| 1778124799 | 3.89° C | 62% | 1015.4 hPa | 0 mm | - | 0 W/m² | - |
| 1778124495 | 3.89° C | 62% | 1015.3 hPa | 0 mm | - | 0 W/m² | - |
| 1778124191 | 3.89° C | 62% | 1015.4 hPa | 0 mm | - | 0 W/m² | - |
| 1778123889 | 3.89° C | 63% | 1015.5 hPa | 0 mm | - | 0 W/m² | - |
| 1778123585 | 3.89° C | 63% | 1015.5 hPa | 0 mm | - | 0 W/m² | - |
| 1778123281 | 3.89° C | 63% | 1015.7 hPa | 0 mm | - | 0 W/m² | - |
| 1778122979 | 3.89° C | 62% | 1015.7 hPa | 0 mm | - | 0 W/m² | - |
| 1778122676 | 3.89° C | 63% | 1015.5 hPa | 0 mm | - | 0 W/m² | - |
| 1778122373 | 3.33° C | 63% | 1015.7 hPa | 0 mm | - | 0 W/m² | - |
| 1778122071 | 3.33° C | 62% | 1015.5 hPa | 0 mm | - | 0 W/m² | - |
| 1778121768 | 3.33° C | 61% | 1015.7 hPa | 0 mm | - | 0 W/m² | - |
| 1778121464 | 3.33° C | 60% | 1015.5 hPa | 0 mm | - | 0 W/m² | - |
| 1778121161 | 3.89° C | 60% | 1015.6 hPa | 0 mm | - | 0 W/m² | - |
| 1778120858 | 3.89° C | 59% | 1015.6 hPa | 0 mm | - | 0 W/m² | - |
| 1778120554 | 4.44° C | 57% | 1015.4 hPa | 0 mm | - | 0 W/m² | - |
| 1778120251 | 4.44° C | 57% | 1015.7 hPa | 0 mm | - | 0 W/m² | - |
| 1778119946 | 5° C | 54% | 1015.7 hPa | 0 mm | - | 0 W/m² | - |
| 1778119645 | 5° C | 54% | 1015.5 hPa | 0 mm | - | 0 W/m² | - |
| 1778119341 | 5° C | 53% | 1015.7 hPa | 0 mm | - | 0 W/m² | - |
| 1778119038 | 5° C | 53% | 1015.7 hPa | 0 mm | - | 0 W/m² | - |
| 1778118736 | 5.56° C | 53% | 1015.7 hPa | 0 mm | - | 0 W/m² | - |
| 1778118432 | 5.56° C | 51% | 1015.5 hPa | 0 mm | - | 0 W/m² | - |
| 1778118128 | 5.56° C | 51% | 1015.7 hPa | 0 mm | - | 0 W/m² | - |
| 1778117825 | 5.56° C | 51% | 1015.4 hPa | 0 mm | - | 0 W/m² | - |
| 1778117523 | 6.11° C | 51% | 1015.4 hPa | 0 mm | - | 1 W/m² | - |
* Rain latest hour (hover to see other rain measurements)
** Current wind speed in m/s (hover to see current wind gust speed)